EW3867 Weather Reports


Display with metric or nautical units.
time (UTC)temp
F
wind
direction
speed
MPH
gust
MPH
rain 1hr
in
rain 24hr
in
rain mn
in
humidity
%
barometer
mb
20260505101632 46 0 0.0 0.0 0.00 0.00 0.00 35 1004.1
20260505100654 46 0 0.0 0.0 0.00 0.00 0.00 34 1003.8
20260505094507 44 0 0.0 0.0 0.00 0.00 0.00 35 1003.7
20260505093503 46 0 0.0 0.0 0.00 0.00 0.00 33 1003.6
20260505092444 47 0 0.0 0.0 0.00 0.00 0.00 33 1003.6
20260505091437 47 0 0.0 1.0 0.00 0.00 0.00 32 1003.7
20260505090421 48 0 0.0 0.0 0.00 0.00 0.00 32 1003.6
20260505085356 46 5 0.0 9.0 0.00 0.00 0.00 33 1003.5
20260505084409 46 28 0.0 0.0 0.00 0.00 0.00 33 1003.8
20260505083418 47 26 0.0 0.0 0.00 0.00 0.00 31 1003.7
20260505082343 49 0 0.0 0.0 0.00 0.00 0.00 30 1003.7
20260505081406 49 0 0.0 0.0 0.00 0.00 0.00 29 1003.6
20260505080339 50 0 0.0 0.0 0.00 0.00 0.00 29 1003.6
20260505075346 51 269 0.0 5.0 0.00 0.00 0.00 28 1003.8
20260505074324 51 272 0.0 1.0 0.00 0.00 0.00 28 1003.6
20260505071034 52 257 3.0 13.0 0.00 0.00 0.00 26 1003.7
20260505070003 52 234 3.0 11.0 0.00 0.00 0.00 25 1003.6
20260505064956 52 252 4.0 12.0 0.00 0.00 0.00 25 1003.7
20260505063928 52 226 4.0 14.0 0.00 0.00 0.00 24 1003.7
20260505062935 53 246 4.0 14.0 0.00 0.00 0.00 24 1003.6
20260505061942 53 240 4.0 14.0 0.00 0.00 0.00 24 1003.5
20260505060956 53 240 4.0 18.0 0.00 0.00 0.00 24 1003.5
20260505055940 54 238 9.0 18.0 0.00 0.00 0.00 24 1003.7
20260505054926 54 231 10.0 20.0 0.00 0.00 0.00 24 1003.7
20260505053924 53 231 10.0 20.0 0.00 0.00 0.00 24 1003.5
20260505052905 50 224 0.0 10.0 0.00 0.00 0.00 29 1003.5
20260505051850 47 217 0.0 0.0 0.00 0.00 0.00 33 1003.7
20260505041752 50 217 0.0 0.0 0.00 0.00 0.00 33 1003.0
20260505040719 51 217 0.0 0.0 0.00 0.00 0.00 31 1002.9
20260505035646 51 217 0.0 0.0 0.00 0.00 0.00 31 1002.8
20260505034647 51 217 0.0 0.0 0.00 0.00 0.00 31 1002.6
20260505033657 51 217 0.0 0.0 0.00 0.00 0.00 31 1002.5
20260505032649 52 217 0.0 0.0 0.00 0.00 0.00 31 1002.4
20260505031714 53 217 0.0 0.0 0.00 0.00 0.00 29 1002.1
20260505030711 54 217 0.0 0.0 0.00 0.00 0.00 28 1002.1
20260505025708 54 217 0.0 0.0 0.00 0.00 0.00 28 1002.0
20260505024718 54 217 0.0 0.0 0.00 0.00 0.00 28 1001.9
20260505023647 55 217 0.0 0.0 0.00 0.00 0.00 28 1001.9
20260505022632 56 217 0.0 0.0 0.00 0.00 0.00 27 1001.8
20260505015410 58 217 0.0 0.0 0.00 0.00 0.00 26 1001.5
20260505013251 60 271 0.0 0.0 0.00 0.00 0.00 24 1001.6
20260505012254 60 270 0.0 2.0 0.00 0.00 0.00 24 1001.5
20260505011228 61 271 0.0 1.0 0.00 0.00 0.00 24 1001.5
20260505005124 61 0 0.0 0.0 0.00 0.00 0.00 25 1001.8
20260505004128 62 262 0.0 1.0 0.00 0.00 0.00 24 1001.6
20260505003114 62 238 0.0 0.0 0.00 0.00 0.00 24 1001.6
20260505002127 62 244 0.0 5.0 0.00 0.00 0.00 24 1001.8
20260505000008 63 0 0.0 0.0 0.00 0.00 0.00 24 1001.9
20260504233900 63 210 0.0 8.0 0.00 0.00 0.00 23 1002.1
20260504232829 63 223 1.0 12.0 0.00 0.00 0.00 22 1002.4
20260504231827 64 209 3.0 12.0 0.00 0.00 0.00 22 1002.5
20260504230826 64 0 3.0 11.0 0.00 0.00 0.00 20 1002.4
20260504225823 64 0 3.0 11.0 0.00 0.00 0.00 20 1002.5
20260504224749 64 0 3.0 13.0 0.00 0.00 0.00 21 1002.5
20260504223727 63 250 0.0 0.0 0.00 0.00 0.00 21 1002.4
20260504222739 63 268 4.0 16.0 0.00 0.00 0.00 22 1002.2
20260504220537 63 259 4.0 14.0 0.00 0.00 0.00 22 1002.6
20260504215512 63 205 4.0 13.0 0.00 0.00 0.00 22 1002.5
20260504214504 64 218 4.0 15.0 0.00 0.00 0.00 23 1002.6
20260504213459 64 250 6.0 18.0 0.00 0.00 0.00 22 1002.7
20260504211316 64 217 6.0 15.0 0.00 0.00 0.00 26 1002.9
20260504210253 64 243 4.0 14.0 0.00 0.00 0.00 27 1003.0
20260504205304 64 229 1.0 14.0 0.00 0.00 0.00 28 1003.0
20260504204304 62 229 1.0 11.0 0.00 0.00 0.00 30 1003.3
20260504203307 63 262 6.0 14.0 0.00 0.00 0.00 30 1003.5
20260504195948 62 252 3.0 10.0 0.00 0.00 0.00 32 1003.7
20260504194939 62 0 0.0 10.0 0.00 0.00 0.00 32 1003.9
20260504193946 62 251 4.0 14.0 0.00 0.00 0.00 33 1004.0
20260504192916 62 207 3.0 12.0 0.00 0.00 0.00 33 1003.9
20260504191851 61 229 4.0 13.0 0.00 0.00 0.00 34 1004.0
20260504190824 61 237 0.0 5.0 0.00 0.00 0.00 33 1003.9
20260504185810 61 225 4.0 16.0 0.00 0.00 0.00 33 1004.0
20260504184743 61 0 4.0 16.0 0.00 0.00 0.00 34 1004.1
20260504183741 61 0 3.0 14.0 0.00 0.00 0.00 35 1004.2
20260504182745 60 213 4.0 14.0 0.00 0.00 0.00 35 1004.5
20260504181733 60 248 4.0 14.0 0.00 0.00 0.00 35 1004.5
20260504180702 60 209 4.0 13.0 0.00 0.00 0.00 34 1004.9
20260504175630 60 237 4.0 12.0 0.00 0.00 0.00 36 1004.8
20260504174613 59 255 1.0 12.0 0.00 0.00 0.00 37 1004.8
20260504172453 59 215 0.0 11.0 0.00 0.00 0.00 36 1004.9
20260504171427 59 227 3.0 13.0 0.00 0.00 0.00 37 1004.8
20260504170402 58 246 1.0 13.0 0.00 0.00 0.00 37 1004.9
20260504160415 56 67 0.0 0.0 0.00 0.00 0.00 48 1005.0
20260504151142 54 28 0.0 0.0 0.00 0.00 0.00 51 1005.2
20260504150114 54 28 0.0 0.0 0.00 0.00 0.00 52 1005.2
20260504141126 50 15 0.0 0.0 0.00 0.00 0.00 57 1005.3